Вернуться в каталог

STARLINK-4208

АктивенСвязьVLEO
NORAD 52844·PAYLOAD·🇺🇸 United States

Запущен Jun 17, 2022 с Cape Canaveral Space Force Station

Loading…

Ближайшие Пролёты (ближайшие 24 часа)

TLE

СвежийSource: CelesTrak SupGP

Эпоха: Sep 14, 2026, 21:44 UTC

1 52844C 22062Q   26257.90604167  .00028081  00000+0  85214-3 0  2578
2 52844  53.1570 253.3467 0001232  86.2682 318.7294 15.33533634    17

Отслеживайте STARLINK-4208 в реальном времени с AllMySat

Download on the App Store